Flag for Hong Kong

Past Weather in Kowloon, Hong Kong — Yesterday and Last 2 Weeks

Now
84 °F

Scattered clouds.


Feels Like: 96 °F
Forecast: 89 / 83 °F
Wind: 7 mph from East

Location: Hong Kong International Airport

Current Time: Aug 6, 2020 at 9:01:47 am

Latest Report: Aug 6, 2020 at 8:00 am


Visibility: N/A

Pressure: 29.83 "Hg

Humidity: 84%

Dew Point: 79 °F

Location of KowloonLocation

Past Weather in Kowloon — Graph

°F

Kowloon Temperature Yesterday

Maximum temperature yesterday: 88 °F (at 1:00 pm)
Minimum temperature yesterday: 79 °F (at 4:22 pm)
Average temperature yesterday: 82 °F

High & Low Weather Summary for the Past Weeks

 TemperatureHumidityPressure
High97 °F (Jul 28, 3:00 pm)100% (Aug 3, 8:30 am)29.89 "Hg (Aug 3, 8:30 am)
Low77 °F (Aug 6, 1:00 am)44% (Jul 28, 12:30 pm)29.59 "Hg (Jul 31, 4:30 pm)
Average85 °F75%29.71 "Hg
* Reported Jul 22 8:00 am — Aug 6 8:00 am, Kowloon. Weather by CustomWeather, © 2020

Note: Actual official high and low records may vary slightly from our data, if they occured in-between our weather recording intervals... More about our weather records

Kowloon Weather History for the Previous 24 Hours

Scroll right to see more
 ConditionsComfort  
Time TempWeatherWind HumidityBarometerVisibility
8:00 am
Thu, Aug 6
84 °FScattered clouds.7 mph84%29.83 "HgN/A
7:30 am82 °FScattered clouds.8 mph89%29.83 "HgN/A
7:00 am81 °FScattered clouds.6 mph89%29.83 "HgN/A
6:30 am81 °FScattered clouds.7 mph94%29.80 "HgN/A
6:00 am81 °FScattered clouds.12 mph89%29.80 "HgN/A
5:30 am81 °FPassing clouds.14 mph89%29.80 "HgN/A
5:00 am81 °FPassing clouds.13 mph89%29.77 "HgN/A
4:30 am81 °FPassing clouds.9 mph89%29.77 "HgN/A
3:30 am79 °FPassing clouds.12 mph89%29.80 "HgN/A
3:00 am81 °FPassing clouds.9 mph84%29.80 "HgN/A
2:30 am79 °FSprinkles. Passing clouds.8 mph89%29.80 "HgN/A
2:00 am79 °FSprinkles. Passing clouds.8 mph89%29.83 "HgN/A
1:30 am77 °FSprinkles. Passing clouds.8 mph94%29.83 "HgN/A
1:00 am77 °FSprinkles. Passing clouds.13 mph94%29.86 "HgN/A
12:30 am79 °FSprinkles. Passing clouds.9 mph89%29.89 "HgN/A
12:00 am79 °FSprinkles. Passing clouds.8 mph89%29.86 "HgN/A
11:30 pm
Wed, Aug 5
81 °FSprinkles. Passing clouds.7 mph84%29.89 "HgN/A
11:00 pm79 °FSprinkles. Passing clouds.10 mph89%29.86 "HgN/A
10:30 pm79 °FSprinkles. Passing clouds.10 mph94%29.86 "HgN/A
10:00 pm79 °FSprinkles. Passing clouds.13 mph94%29.86 "HgN/A
9:30 pm79 °FPassing clouds.10 mph94%29.86 "HgN/A
9:00 pm79 °FSprinkles. Passing clouds.13 mph94%29.83 "HgN/A
8:30 pm79 °FSprinkles. Passing clouds.10 mph94%29.83 "HgN/A
8:00 pm79 °FSprinkles. Passing clouds.8 mph94%29.80 "HgN/A
7:30 pm79 °FSprinkles. Passing clouds.7 mph94%29.80 "HgN/A
7:00 pm79 °FSprinkles. Scattered clouds.8 mph94%29.80 "HgN/A
6:30 pm81 °FSprinkles. Scattered clouds.3 mph84%29.80 "HgN/A
6:00 pm81 °FSprinkles. Scattered clouds.7 mph84%29.77 "HgN/A
5:30 pm79 °FRain showers. Scattered clouds.6 mph89%29.77 "Hg4 mi
5:00 pm79 °FRain showers. Scattered clouds.14 mph89%29.77 "Hg4 mi
4:30 pm79 °FSprinkles. Scattered clouds.15 mph89%29.77 "Hg4 mi
4:22 pm79 °FRain showers. Scattered clouds.18 mph89%29.77 "Hg4 mi
3:30 pm86 °FScattered showers. Scattered clouds.13 mph75%29.74 "HgN/A
3:00 pm86 °FScattered clouds.13 mph75%29.74 "HgN/A
2:30 pm86 °FScattered clouds.12 mph75%29.74 "HgN/A
2:00 pm86 °FScattered showers. Scattered clouds.10 mph75%29.74 "HgN/A
1:30 pm86 °FScattered clouds.13 mph75%29.74 "HgN/A
1:00 pm88 °FScattered clouds.15 mph70%29.74 "HgN/A
12:30 pm86 °FScattered clouds.14 mph75%29.77 "HgN/A
12:00 pm84 °FScattered clouds.17 mph79%29.77 "HgN/A
11:30 am84 °FScattered clouds.15 mph79%29.77 "HgN/A
11:00 am84 °FScattered showers. Scattered clouds.16 mph79%29.77 "HgN/A
10:30 am84 °FScattered showers. Scattered clouds.10 mph84%29.77 "HgN/A
10:00 am84 °FSprinkles. Scattered clouds.9 mph84%29.77 "HgN/A
9:30 am84 °FScattered clouds.12 mph84%29.77 "HgN/A
9:00 am84 °FScattered clouds.13 mph79%29.74 "HgN/A
Weather by CustomWeather, © 2020

See weather overview